Location: Bosmont
(49.7318°N, 3.8587°E)
Time: 00:38:15
(UTC+00:00)

Okean-O - Pass Details

Date: 08 February 2023
Orbit: 637 x 638 km, 98.1° (Epoch: 21 March)

Event Time Altitude Azimuth Distance (km) Brightness Sun altitude
Exits shadow 19:43:41 35° 340° (NNW) 1,032 3.8 -28.2°
Drops below altitude 10° 19:46:18 10° 344° (NNW) 2,042 5.5 -28.6°
Sets 19:48:31 0° 346° (NNW) 2,956 6.4 -28.9°
